San Angelo, TX

6:38 PM CDT on April 29, 2017 (GMT -0500)
San Angelo Regional-Mathis

Weather History for KSJT - January, 2013

Change the Weather History Date:

Monday, January 14, 2013

  Actual Average Record
Temperature  
Mean Temperature 34 °F 46 °F  
Max Temperature 44 °F 59 °F 82 °F (1971)
Min Temperature 24 °F 33 °F 1 °F (1944)
Degree Days  
Heating Degree Days 31 19  
Month to date heating degree days 316 266  
Since 1 July heating degree days 1041 1233  
Cooling Degree Days 0 0  
Month to date cooling degree days 0 0  
Year to date cooling degree days 0 0  
Moisture  
Dew Point 20 °F    
Average Humidity 61    
Maximum Humidity 78    
Minimum Humidity 43    
Precipitation  
Precipitation 0.00 in 0.03 in 0.34 in (1946)
Month to date precipitation 1.40 0.38  
Year to date precipitation 1.40 0.38  
Snow  
Snow 0.00 in 0.00 in 1.50 in (1944)
Month to date snowfall 2.8 0.6  
Since 1 July snowfall 2.8 1.2  
Snow Depth 0.00 in    
Sea Level Pressure  
Sea Level Pressure 30.23 in    
Wind  
Wind Speed 10 mph (NE)    
Max Wind Speed 18 mph    
Max Gust Speed 23 mph    
Visibility 10 miles    
Events      
T = Trace of Precipitation, MM = Missing Value Source: NWS Daily Summary

Daily Weather History Graph

Daily Weather History Graph

Search for Another Location

Airport or City:

Trip Planner

Search our weather history database for the weather conditions in past years. The results will help you decide how hot, cold, wet, or windy it might be!

Date:

Astronomy

Jan. 14, 2013 Rise Set
Actual Time 7:41 AM CST 6:01 PM CST
Civil Twilight 7:15 AM CST 6:27 PM CST
Nautical Twilight 6:45 AM CST 6:57 PM CST
Astronomical Twilight 6:16 AM CST 7:26 PM CST
Moon 9:31 AM CST (1/14) 9:31 PM CST (1/14)
Length of Visible Light 11h 12m
Length of Day
10h 19m
Waxing Crescent, 11% of the Moon is Illuminated
Jan 14
Waxing Crescent
Jan 18
First Quarter
Jan 26
Full
Feb 3
Last Quarter
Feb 10
New

Hourly Weather History & Observations

Time (CST) Temp. Windchill Dew Point Humidity Pressure Visibility Wind Dir Wind Speed Gust Speed Precip Events Conditions
12:51 AM 28.0 °F 20.0 °F 19.0 °F 69% 30.26 in 10.0 mi NE 8.1 mph - N/A   Clear
1:51 AM 28.0 °F 18.6 °F 19.0 °F 69% 30.26 in 10.0 mi NNE 10.4 mph - N/A   Clear
2:51 AM 27.0 °F 18.7 °F 18.0 °F 69% 30.26 in 10.0 mi NE 8.1 mph - N/A   Clear
3:51 AM 26.1 °F 18.4 °F 18.0 °F 71% 30.27 in 10.0 mi NE 6.9 mph - N/A   Clear
4:51 AM 26.1 °F 18.4 °F 17.1 °F 69% 30.26 in 10.0 mi NE 6.9 mph - N/A   Clear
5:51 AM 25.0 °F 14.2 °F 17.1 °F 72% 30.27 in 10.0 mi NNE 11.5 mph - N/A   Clear
6:51 AM 24.1 °F 12.5 °F 17.1 °F 75% 30.27 in 10.0 mi NNE 12.7 mph - N/A   Clear
7:51 AM 24.1 °F 13.7 °F 16.0 °F 71% 30.31 in 10.0 mi NNE 10.4 mph - N/A   Clear
8:51 AM 25.0 °F 12.6 °F 16.0 °F 69% 30.30 in 10.0 mi NE 15.0 mph - N/A   Clear
9:51 AM 28.0 °F 16.5 °F 15.1 °F 58% 30.31 in 10.0 mi NE 15.0 mph - N/A   Clear
10:51 AM 30.9 °F 21.7 °F 16.0 °F 54% 30.31 in 10.0 mi NE 11.5 mph - N/A   Clear
11:51 AM 34.0 °F 26.6 °F 18.0 °F 52% 30.27 in 10.0 mi ENE 9.2 mph - N/A   Clear
12:51 PM 36.0 °F 29.0 °F 19.9 °F 52% 30.22 in 10.0 mi ENE 9.2 mph - N/A   Clear
1:51 PM 39.9 °F 32.9 °F 21.0 °F 47% 30.18 in 10.0 mi East 11.5 mph - N/A   Clear
2:51 PM 43.0 °F 36.0 °F 21.9 °F 43% 30.16 in 10.0 mi ENE 13.8 mph - N/A   Clear
3:51 PM 43.0 °F 36.0 °F 21.0 °F 42% 30.16 in 10.0 mi East 13.8 mph - N/A   Clear
4:51 PM 42.1 °F 34.5 °F 21.9 °F 45% 30.16 in 10.0 mi ENE 15.0 mph - N/A   Clear
5:51 PM 39.9 °F 33.9 °F 23.0 °F 51% 30.18 in 10.0 mi ENE 9.2 mph - N/A   Clear
6:51 PM 37.0 °F 31.0 °F 24.1 °F 59% 30.19 in 10.0 mi ENE 8.1 mph - N/A   Clear
7:51 PM 34.0 °F 27.2 °F 24.1 °F 67% 30.19 in 10.0 mi ENE 8.1 mph - N/A   Clear
8:51 PM 32.0 °F 26.4 °F 23.0 °F 69% 30.20 in 10.0 mi ENE 5.8 mph - N/A   Clear
9:51 PM 30.9 °F 23.5 °F 24.1 °F 76% 30.19 in 10.0 mi NNE 8.1 mph - N/A   Clear
10:51 PM 33.1 °F 26.1 °F 23.0 °F 66% 30.19 in 10.0 mi NNE 8.1 mph - N/A   Mostly Cloudy
11:51 PM 34.0 °F 28.0 °F 21.9 °F 61% 30.19 in 10.0 mi NE 6.9 mph - N/A   Overcast